Weather History for Ukiah, CA

Change the Weather History Date:

Sunday, September 15, 2013

  Actual Average Record
Temperature  
Mean Temperature 69 °F 69 °F  
Max Temperature 84 °F 88 °F 109 °F (1971)
Min Temperature 54 °F 50 °F 35 °F (1921)
Degree Days  
Heating Degree Days 0 1  
Month to date heating degree days 5  
Since 1 July heating degree days 8  
Cooling Degree Days 4 5  
Month to date cooling degree days 81  
Year to date cooling degree days 764  
Growing Degree Days 18 (Base 50)    
Moisture  
Dew Point 51 °F    
Average Humidity 56    
Maximum Humidity 80    
Minimum Humidity 32    
Precipitation  
Precipitation 0.00 in 0.02 in 1.52 in (1982)
Month to date precipitation 0.00 0.20  
Year to date precipitation 5.61 23.72  
Since 1 July precipitation 0.03 0.34  
Snow  
Snow 0.00 in - - ()
Month to date snowfall 0.0  
Since 1 July snowfall 0.0  
Since 1 September snowfall 0.0  
Snow Depth -    
Sea Level Pressure  
Sea Level Pressure 29.82 in    
Wind  
Wind Speed 4 mph (NW)    
Max Wind Speed 15 mph    
Max Gust Speed 20 mph    
Visibility 10 miles    
Events      
T = Trace of Precipitation, MM = Missing Value Source: NWS Daily Summary

Daily Weather History Graph

Daily Weather History Graph

Search for Another Location

Airport:

Trip Planner

Search our weather history database for the weather conditions in past years. The results will help you decide how hot, cold, wet, or windy it might be!

Date:

Astronomy

Sep. 15, 2013 Rise Set
Actual Time 6:54 AM PDT 7:20 PM PDT
Civil Twilight 6:27 AM PDT 7:47 PM PDT
Nautical Twilight 5:56 AM PDT 8:18 PM PDT
Astronomical Twilight 5:23 AM PDT 8:51 PM PDT
Moon 4:50 PM PDT (9/15) 2:40 AM PDT (9/15)
Length of Visible Light 13h 19m
Length of Day
12h 26m
Waxing Gibbous, 83% of the Moon is Illuminated
Sep 15
Waxing Gibbous
Sep 19
Full
Sep 26
Last Quarter
Oct 4
New
Oct 11
First Quarter

Hourly Weather History & Observations

Time (PDT) Temp. Heat Index Dew Point Humidity Pressure Visibility Wind Dir Wind Speed Gust Speed Precip Events Conditions
12:56 AM 57.0 °F - 51.1 °F 81% 29.78 in 10.0 mi Variable 3.5 mph - N/A   Clear
1:56 AM 55.9 °F - 48.9 °F 77% 29.78 in 10.0 mi Calm Calm - N/A   Partly Cloudy
2:41 AM 55.4 °F - 50.0 °F 82% 29.81 in 10.0 mi West 3.5 mph - N/A   Mostly Cloudy
2:56 AM 57.0 °F - 48.9 °F 74% 29.78 in 10.0 mi WNW 4.6 mph - N/A   Overcast
3:56 AM 57.9 °F - 52.0 °F 81% 29.79 in 10.0 mi NNW 6.9 mph - N/A   Overcast
4:56 AM 57.9 °F - 51.1 °F 78% 29.79 in 10.0 mi NNW 5.8 mph - N/A   Overcast
5:15 AM 55.4 °F - 50.0 °F 82% 29.82 in 10.0 mi Variable 3.5 mph - N/A   Scattered Clouds
5:56 AM 55.0 °F - 48.9 °F 80% 29.80 in 10.0 mi West 3.5 mph - N/A   Scattered Clouds
6:16 AM 55.4 °F - 48.2 °F 77% 29.82 in 10.0 mi WNW 4.6 mph - N/A   Mostly Cloudy
6:27 AM 55.4 °F - 48.2 °F 77% 29.83 in 10.0 mi WNW 3.5 mph - N/A   Scattered Clouds
6:43 AM 53.6 °F - 48.2 °F 82% 29.83 in 10.0 mi Calm Calm - N/A   Mostly Cloudy
6:56 AM 55.0 °F - 48.9 °F 80% 29.81 in 10.0 mi NW 3.5 mph - N/A   Mostly Cloudy
7:24 AM 55.4 °F - 48.2 °F 77% 29.84 in 10.0 mi Calm Calm - N/A   Partly Cloudy
7:45 AM 55.4 °F - 50.0 °F 82% 29.84 in 10.0 mi WNW 4.6 mph - N/A   Mostly Cloudy
7:56 AM 57.0 °F - 50.0 °F 77% 29.83 in 10.0 mi Calm Calm - N/A   Mostly Cloudy
8:56 AM 61.0 °F - 51.1 °F 70% 29.84 in 10.0 mi Variable 3.5 mph - N/A   Mostly Cloudy
9:16 AM 60.8 °F - 51.8 °F 72% 29.86 in 10.0 mi North 3.5 mph - N/A   Scattered Clouds
9:56 AM 63.0 °F - 51.1 °F 65% 29.85 in 10.0 mi East 3.5 mph - N/A   Clear
10:56 AM 69.1 °F - 52.0 °F 54% 29.84 in 10.0 mi Calm Calm - N/A   Clear
11:56 AM 73.0 °F - 53.1 °F 49% 29.83 in 10.0 mi Calm Calm - N/A   Clear
12:56 PM 80.1 °F 80.0 °F 54.0 °F 40% 29.82 in 10.0 mi Variable 3.5 mph - N/A   Clear
1:56 PM 82.0 °F 81.2 °F 53.1 °F 37% 29.81 in 10.0 mi NNW 8.1 mph - N/A   Clear
2:56 PM 82.9 °F - 51.1 °F 33% 29.79 in 10.0 mi Variable 3.5 mph - N/A   Clear
3:56 PM 84.0 °F - 52.0 °F 33% 29.79 in 10.0 mi Variable 5.8 mph - N/A   Clear
4:56 PM 81.0 °F - 52.0 °F 36% 29.78 in 10.0 mi NW 11.5 mph - N/A   Clear
5:56 PM 79.0 °F - 52.0 °F 39% 29.79 in 10.0 mi Variable 5.8 mph - N/A   Clear
6:56 PM 73.9 °F - 53.1 °F 48% 29.80 in 10.0 mi North 5.8 mph - N/A   Clear
7:56 PM 69.1 °F - 54.0 °F 58% 29.82 in 10.0 mi Calm Calm - N/A   Clear
8:56 PM 66.9 °F - 55.0 °F 66% 29.84 in 10.0 mi NNE 8.1 mph - N/A   Clear
9:56 PM 66.0 °F - 55.0 °F 68% 29.86 in 10.0 mi North 5.8 mph - N/A   Clear
10:56 PM 64.9 °F - 55.0 °F 70% 29.86 in 10.0 mi Calm Calm - N/A   Clear
11:56 PM 62.1 °F - 54.0 °F 75% 29.86 in 10.0 mi Calm Calm - N/A   Clear